Location: Slave Lake
(55.2830°N, 114.7830°W)
Time: 13:11:00
(UTC-06:00)

Amateur Radio Satellites - All Passes

Search period start: 03 August 2015 12:41
Search period end: 04 August 2015 12:41
Location: Slave Lake, 55.2830°N, 114.7830°W

Satellite Date Start Highest point End Downlink Frequencies (MHz)
Time Altitude Azimuth
CINEMA 3 03 Aug 12:43:26 12:46:43 19° 304° (NW) 12:50:01 145.822/145.860
UNISAT 6 03 Aug 12:43:43 12:46:31 16° 275° (W) 12:49:15 437.425
PCSat 03 Aug 12:45:37 12:50:30 32° 337° (NNW) 12:55:22 145.827
O/OREOS (USA 219) 03 Aug 12:47:41 12:50:58 19° 257° (WSW) 12:54:09 437.305
SO-50 03 Aug 12:53:05 12:57:39 36° 340° (NNW) 13:02:16 436.795
DUCHIFAT 1 03 Aug 12:54:18 12:57:45 24° 268° (W) 13:01:10 145.980
AISAT 03 Aug 12:54:22 12:58:47 66° 102° (ESE) 13:03:11 437.250
CUBEBUG 2 03 Aug 12:56:57 13:00:40 24° 301° (WNW) 13:04:23 437.445
QB50P1 03 Aug 12:59:52 13:03:08 21° 270° (W) 13:06:22 145.935-145.965
NANOSAT C BR1 03 Aug 13:00:00 13:03:17 21° 270° (W) 13:06:30 145.865
CUBEBUG 1 03 Aug 13:00:30 13:04:43 47° 99° (E) 13:08:55 437.445
DX 1 03 Aug 13:08:34 13:12:54 66° 290° (WNW) 13:17:13 434.975-435.025
AO-7 03 Aug 13:13:38 13:19:20 21° 28° (NNE) 13:25:10 29.400- 29.500
50 SAT 03 Aug 13:13:55 13:17:55 69° 288° (WNW) 13:21:52 437.505
Cosmos 2504 03 Aug 13:24:00 13:31:52 45° 64° (ENE) 13:40:04 435.465 / 435.565
SPROUT 03 Aug 13:26:34 13:30:25 31° 94° (E) 13:34:17 437.525
TISAT 1 03 Aug 13:28:22 13:31:38 22° 91° (E) 13:34:57 437.305
VELOX 1 03 Aug 13:32:42 13:37:05 63° 290° (WNW) 13:41:27 145.980
DELFI C3 03 Aug 13:39:00 13:41:05 13° 307° (NW) 13:43:02 145.870
ZACube-1 03 Aug 13:43:13 13:46:03 16° 307° (NW) 13:48:48 437.345
YUBILEINY 03 Aug 13:48:16 13:56:08 37° 277° (W) 14:03:51 435.215
Gurwin Techsat 1B 03 Aug 13:49:23 13:54:06 34° 60° (ENE) 13:58:54 435.225
AIST 1 03 Aug 13:50:17 13:54:25 42° 290° (WNW) 13:58:33
BUGSAT 1 03 Aug 13:53:19 13:54:13 10° 277° (W) 13:54:56 437.445
ESTCUBE 1 03 Aug 13:54:45 13:59:09 54° 292° (WNW) 14:03:33 437.505/2401.250
ITAMSAT 1 03 Aug 13:56:17 14:00:57 35° 60° (ENE) 14:05:40 435.822/435.867
SWISSCUBE 03 Aug 14:02:48 14:04:40 12° 82° (E) 14:06:44 437.505
FUNcube-1 03 Aug 14:04:28 14:06:19 12° 311° (NW) 14:08:02 145.935
Oscar 19 03 Aug 14:08:07 14:13:15 79° 254° (WSW) 14:18:27 437.125/150
HUMSAT D 03 Aug 14:08:22 14:11:16 17° 305° (NW) 14:14:04 437.325/437.525
JAS-2 03 Aug 14:12:59 14:18:43 32° 51° (NE) 14:25:06 435.910
UKube-1 03 Aug 14:13:03 14:16:30 23° 302° (WNW) 14:19:53 .
HO-68 03 Aug 14:13:29 14:17:16 15° 332° (NNW) 14:20:54 435.675
ITUPSAT 1 03 Aug 14:24:15 14:27:18 17° 86° (E) 14:30:29 437.325
PCSat 03 Aug 14:31:03 14:35:26 24° 2° (N) 14:39:49 145.827
Cosmos 2491 03 Aug 14:31:16 14:39:52 56° 292° (WNW) 14:48:27 435.465 / 435.565
AISAT 03 Aug 14:31:32 14:35:01 23° 303° (WNW) 14:38:27 437.250
SO-50 03 Aug 14:35:01 14:39:20 28° 4° (N) 14:43:40 436.795
GONETS M04 03 Aug 14:35:56 14:40:34 15° 30° (NNE) 14:45:27
CUBEBUG 1 03 Aug 14:37:10 14:40:55 28° 299° (WNW) 14:44:36 437.445
DX 1 03 Aug 14:46:11 14:48:25 14° 310° (NW) 14:50:32 434.975-435.025
DANDE 03 Aug 14:50:00 14:52:49 23° 66° (ENE) 14:56:19 436.750
50 SAT 03 Aug 14:50:01 14:51:49 13° 307° (NW) 14:53:29 437.505
CUSAT 1 03 Aug 14:50:33 14:54:08 37° 69° (ENE) 14:58:49 437.405
AO-7 03 Aug 15:02:32 15:10:22 48° 53° (NE) 15:18:17 29.400- 29.500
SPROUT 03 Aug 15:02:32 15:06:36 40° 294° (WNW) 15:10:38 437.525
TISAT 1 03 Aug 15:03:35 15:07:45 57° 290° (WNW) 15:11:53 437.305
VELOX 1 03 Aug 15:10:42 15:12:52 13° 310° (NW) 15:14:54 145.980
Cosmos 2504 03 Aug 15:16:19 15:24:30 62° 267° (W) 15:32:55 435.465 / 435.565
BEESAT 03 Aug 15:17:49 15:22:24 44° 98° (E) 15:26:59 436.000
KKS-1 03 Aug 15:27:46 15:29:48 13° 84° (E) 15:32:02 437.445
Gurwin Techsat 1B 03 Aug 15:28:44 15:33:57 53° 260° (W) 15:39:11 435.225
ESTCUBE 1 03 Aug 15:33:21 15:35:10 12° 312° (NW) 15:36:49 437.505/2401.250
ITAMSAT 1 03 Aug 15:35:15 15:40:20 51° 260° (W) 15:45:26 435.822/435.867
HORYU 2 03 Aug 15:38:34 15:42:42 38° 64° (ENE) 15:46:54 437.375
SWISSCUBE 03 Aug 15:38:44 15:43:32 69° 103° (ESE) 15:48:18 437.505
Oscar 19 03 Aug 15:50:29 15:53:35 15° 277° (W) 15:56:29 437.125/150
JAS-2 03 Aug 15:56:37 16:03:08 81° 255° (WSW) 16:10:34 435.910
ITUPSAT 1 03 Aug 16:01:06 16:05:57 88° 280° (W) 16:10:44 437.325
PCSat 03 Aug 16:15:17 16:20:17 36° 27° (NNE) 16:25:18 145.827
SO-50 03 Aug 16:16:06 16:20:54 45° 27° (NNE) 16:25:41 436.795
Cosmos 2499 03 Aug 16:21:10 16:26:06 16° 34° (NE) 16:31:25 435.465 / 435.565
STARS 03 Aug 16:29:17 16:33:06 28° 94° (E) 16:36:57 437.465
Cubesat XI-IV 03 Aug 16:30:58 16:33:25 14° 43° (NE) 16:36:02 437.490
GONETS M04 03 Aug 16:32:33 16:40:38 41° 60° (ENE) 16:48:48
DANDE 03 Aug 16:32:36 16:35:59 42° 260° (W) 16:40:23 436.750
Cosmos 2491 03 Aug 16:33:03 16:39:14 20° 321° (NW) 16:45:10 435.465 / 435.565
CUSAT 1 03 Aug 16:33:04 16:36:40 32° 263° (W) 16:41:13 437.405
MOZHAYETS 4 03 Aug 16:38:51 16:39:43 11° 80° (E) 16:40:50
TISAT 1 03 Aug 16:41:09 16:42:43 12° 310° (NW) 16:44:08 437.305
AO-7 03 Aug 16:54:47 17:03:05 62° 256° (WSW) 17:11:24 29.400- 29.500
BEESAT 03 Aug 16:55:50 17:00:11 35° 299° (WNW) 17:04:29 436.000
KKS-1 03 Aug 17:02:45 17:07:16 79° 105° (ESE) 17:11:45 437.445
Cosmos 2504 03 Aug 17:10:01 17:15:14 18° 289° (WNW) 17:20:13 435.465 / 435.565
Gurwin Techsat 1B 03 Aug 17:14:21 17:15:19 10° 282° (WNW) 17:15:59 435.225
HORYU 2 03 Aug 17:15:15 17:19:23 36° 264° (W) 17:23:33 437.375
SWISSCUBE 03 Aug 17:17:10 17:21:01 24° 304° (WNW) 17:24:48 437.505
CUTE-I 03 Aug 17:23:30 17:27:49 26° 55° (NE) 17:32:14 437.470
ITUPSAT 1 03 Aug 17:39:51 17:43:15 19° 307° (NW) 17:46:33 437.325
HO-68 03 Aug 17:43:29 17:46:46 14° 26° (NNE) 17:50:12 435.675
JAS-2 03 Aug 17:44:34 17:49:35 22° 280° (W) 17:54:48 435.910
SO-50 03 Aug 17:56:45 18:01:41 60° 229° (SW) 18:06:31 436.795
PCSat 03 Aug 17:58:47 18:04:15 82° 230° (SW) 18:09:42 145.827
STARS 03 Aug 18:05:28 18:09:45 47° 293° (WNW) 18:14:00 437.465
Cubesat XI-IV 03 Aug 18:07:19 18:12:27 48° 64° (ENE) 18:17:37 437.490
MOZHAYETS 4 03 Aug 18:13:24 18:18:02 62° 102° (ESE) 18:22:37
Cosmos 2499 03 Aug 18:14:00 18:22:09 43° 62° (ENE) 18:30:34 435.465 / 435.565
GONETS M04 03 Aug 18:29:32 18:38:10 68° 265° (W) 18:46:47
CUBESAT XI-V 03 Aug 18:39:14 18:41:55 15° 84° (E) 18:44:44 437.345
KKS-1 03 Aug 18:40:09 18:43:27 20° 305° (NW) 18:46:39 437.445
AO-7 03 Aug 18:52:33 18:57:54 17° 280° (W) 19:02:53 29.400- 29.500
CUTE-I 03 Aug 19:02:08 19:07:29 75° 254° (WSW) 19:12:53 437.470
DOVE 4 03 Aug 19:14:58 19:16:50 13° 51° (NE) 19:18:50 437.250
HO-68 03 Aug 19:26:22 19:32:34 34° 51° (NE) 19:38:51 435.675
GOMX 1 03 Aug 19:38:31 19:41:58 26° 61° (ENE) 19:45:30 467.674
SO-50 03 Aug 19:38:54 19:41:22 14° 249° (WSW) 19:43:38 436.795
BRITE-PL 03 Aug 19:41:50 19:45:48 41° 67° (ENE) 19:49:44 437.365/2234.400
PCSat 03 Aug 19:43:07 19:47:00 20° 251° (WSW) 19:50:43 145.827
STARS 03 Aug 19:44:09 19:45:16 11° 313° (NW) 19:46:13 437.465
COMPASS 1 03 Aug 19:44:36 19:46:41 14° 52° (NE) 19:48:54 437.405
Cubesat XI-IV 03 Aug 19:47:47 19:52:44 36° 265° (W) 19:57:41 437.490
MOZHAYETS 4 03 Aug 19:51:07 19:54:56 25° 301° (WNW) 19:58:41
SEEDS 03 Aug 20:03:03 20:06:17 22° 58° (ENE) 20:09:36 437.485
PRISM 03 Aug 20:06:31 20:09:41 21° 91° (E) 20:12:55 437.425
RS-15 03 Aug 20:06:33 20:10:53 14° 92° (E) 20:16:02 29.354- 29.394
Cosmos 2499 03 Aug 20:07:16 20:15:52 66° 266° (W) 20:24:37 435.465 / 435.565
CUTE 1.7 + AOD 2 03 Aug 20:10:09 20:13:47 28° 62° (ENE) 20:17:31 437.475
CUBESAT XI-V 03 Aug 20:15:28 20:20:07 89° 105° (ESE) 20:24:43 437.345
STRAND 1 03 Aug 20:16:55 20:21:35 35° 95° (E) 20:26:16 437.568
CANX-2 03 Aug 20:18:41 20:22:35 35° 65° (ENE) 20:26:33 2200.000
AAUSAT CUBESAT 2 03 Aug 20:21:59 20:25:15 22° 59° (ENE) 20:28:35 437.432
Oscar 11 03 Aug 20:26:43 20:29:15 16° 53° (NE) 20:31:53 145.826/435.025
GONETS M04 03 Aug 20:27:42 20:33:30 19° 289° (WNW) 20:38:58
UWE-3 03 Aug 20:29:31 20:31:42 14° 51° (NE) 20:34:01 435.000/436.395/437.385
CINEMA 3 03 Aug 20:38:08 20:41:48 30° 62° (ENE) 20:45:38 145.822/145.860
Cosmos 2491 03 Aug 20:38:37 20:42:55 14° 28° (NNE) 20:47:29 435.465 / 435.565
CUTE-I 03 Aug 20:45:24 20:48:36 15° 277° (W) 20:51:36 437.470
DOVE 4 03 Aug 20:49:45 20:53:52 68° 72° (ENE) 20:58:06 437.250
CUBEBUG 2 03 Aug 20:49:50 20:53:08 22° 58° (ENE) 20:56:35 437.445
HO-68 03 Aug 21:12:39 21:19:50 79° 253° (WSW) 21:27:03 435.675
GOMX 1 03 Aug 21:15:58 21:19:59 46° 261° (W) 21:24:02 467.674
COMPASS 1 03 Aug 21:17:26 21:21:39 70° 72° (ENE) 21:25:54 437.405
BRITE-PL 03 Aug 21:20:51 21:24:33 28° 267° (W) 21:28:08 437.365/2234.400
DELFI C3 03 Aug 21:22:11 21:25:37 27° 62° (ENE) 21:29:07 145.870
VELOX 1 03 Aug 21:29:01 21:29:34 10° 46° (NE) 21:30:16 145.980
ZACube-1 03 Aug 21:33:07 21:36:55 32° 63° (ENE) 21:40:52 437.345
ISS 03 Aug 21:33:38 21:35:16 13° 146° (SE) 21:36:59 145.825
SEEDS 03 Aug 21:37:28 21:41:43 65° 258° (WSW) 21:46:00 437.485
PRISM 03 Aug 21:41:24 21:45:28 55° 292° (WNW) 21:49:28 437.425
CUTE 1.7 + AOD 2 03 Aug 21:45:23 21:49:33 47° 262° (W) 21:53:44 437.475
ESTCUBE 1 03 Aug 21:51:17 21:53:00 12° 48° (NE) 21:54:52 437.505/2401.250
FUNcube-1 03 Aug 21:53:05 21:57:10 45° 67° (ENE) 22:01:22 145.935
CUBESAT XI-V 03 Aug 21:53:47 21:57:00 19° 306° (NW) 22:00:08 437.345
CANX-2 03 Aug 21:54:30 21:58:30 36° 264° (W) 22:02:32 2200.000
HUMSAT D 03 Aug 21:55:35 21:59:02 26° 61° (ENE) 22:02:35 437.325/437.525
STRAND 1 03 Aug 21:56:04 22:00:58 47° 296° (WNW) 22:05:50 437.568
AAUSAT CUBESAT 2 03 Aug 21:56:20 22:00:31 61° 259° (WSW) 22:04:44 437.432
Oscar 11 03 Aug 22:00:27 22:04:48 79° 73° (ENE) 22:09:11 145.826/435.025
Cosmos 2499 03 Aug 22:01:45 22:07:36 20° 288° (WNW) 22:13:10 435.465 / 435.565
UWE-3 03 Aug 22:03:14 22:07:28 69° 72° (ENE) 22:11:53 435.000/436.395/437.385
UKube-1 03 Aug 22:03:14 22:06:38 23° 58° (ENE) 22:10:05 .
RS-15 03 Aug 22:10:08 22:20:24 50° 117° (ESE) 22:31:11 29.354- 29.394
AIST 1 03 Aug 22:12:36 22:15:31 18° 59° (ENE) 22:18:32
CINEMA 3 03 Aug 22:14:54 22:18:54 42° 263° (W) 22:23:04 145.822/145.860
AISAT 03 Aug 22:23:42 22:27:15 25° 59° (ENE) 22:30:53 437.250
CUBEBUG 2 03 Aug 22:25:14 22:29:28 64° 259° (WSW) 22:33:51 437.445
M-CUBED/EXP-1 PRIME 03 Aug 22:25:39 22:28:29 16° 91° (E) 22:31:27 437.505
CUBEBUG 1 03 Aug 22:29:05 22:32:00 18° 55° (NE) 22:35:00 437.445
DOVE 4 03 Aug 22:29:21 22:32:13 17° 273° (W) 22:35:01 437.250
50 SAT 03 Aug 22:30:39 22:33:56 26° 62° (ENE) 22:37:18 437.505
DX 1 03 Aug 22:35:11 22:39:17 43° 65° (ENE) 22:43:25 434.975-435.025
Cosmos 2491 03 Aug 22:35:14 22:43:11 38° 58° (ENE) 22:51:13 435.465 / 435.565
UNISAT 6 03 Aug 22:50:42 22:52:39 13° 82° (E) 22:54:50 437.425
AUBIESAT-1 03 Aug 22:51:33 22:55:12 22° 95° (E) 22:58:52 437.475
SPROUT 03 Aug 22:54:42 22:56:21 12° 50° (NE) 22:58:09 437.525
COMPASS 1 03 Aug 22:54:50 22:57:49 18° 272° (W) 23:00:43 437.405
DELFI C3 03 Aug 22:56:36 23:00:32 45° 261° (W) 23:04:29 145.870
VELOX 1 03 Aug 23:00:58 23:05:10 45° 66° (ENE) 23:09:24 145.980
HO-68 03 Aug 23:03:32 23:08:51 21° 276° (W) 23:13:57 435.675
ISS 03 Aug 23:08:05 23:11:04 34° 165° (SSE) 23:14:05 145.825
YUBILEINY 03 Aug 23:09:04 23:14:02 17° 69° (ENE) 23:19:24 435.215
ZACube-1 03 Aug 23:09:11 23:13:13 40° 263° (W) 23:17:22 437.345
SEEDS 03 Aug 23:17:49 23:18:28 10° 279° (W) 23:18:52 437.485
PRISM 03 Aug 23:18:48 23:20:05 11° 311° (NW) 23:21:14 437.425
ESTCUBE 1 03 Aug 23:24:35 23:29:00 54° 68° (ENE) 23:33:27 437.505/2401.250
BEESAT 3 03 Aug 23:29:11 23:31:48 17° 117° (ESE) 23:34:31 437.485
FUNcube-1 03 Aug 23:29:59 23:33:41 28° 268° (W) 23:37:27 145.935
HUMSAT D 03 Aug 23:30:27 23:34:33 51° 260° (W) 23:38:44 437.325/437.525
TIGRISAT 03 Aug 23:31:26 23:35:20 26° 91° (E) 23:39:19 435.000
ANTELSAT 03 Aug 23:34:31 23:38:33 28° 92° (E) 23:42:39 437.575/2403.000
STRAND 1 03 Aug 23:36:57 23:39:07 13° 317° (NW) 23:41:09 437.568
UKube-1 03 Aug 23:38:09 23:42:26 62° 257° (WSW) 23:46:45 .
Oscar 11 03 Aug 23:38:39 23:41:35 17° 274° (W) 23:44:22 145.826/435.025
UWE-3 03 Aug 23:41:28 23:44:33 19° 273° (W) 23:47:36 435.000/436.395/437.385
POLYITAN 1 03 Aug 23:46:14 23:48:45 15° 86° (E) 23:51:24 437.675
AIST 1 03 Aug 23:49:28 23:53:45 75° 262° (W) 23:58:00
BUGSAT 1 03 Aug 23:51:15 23:51:44 10° 83° (E) 23:52:25 437.445
M-CUBED/EXP-1 PRIME 03 Aug 23:59:10 00:04:02 81° 110° (ESE) 00:08:47 437.505
AISAT 03 Aug 23:59:13 00:03:34 58° 258° (WSW) 00:07:55 437.250
POPSAT HIP 1 04 Aug 00:01:34 00:04:45 20° 90° (E) 00:08:00 437.405
CUBEBUG 1 04 Aug 00:03:30 00:07:52 85° 257° (WSW) 00:12:14 437.445
ITUPSAT 1 04 Aug 00:04:07 00:05:18 11° 44° (NE) 00:06:39 437.325
50 SAT 04 Aug 00:04:35 00:08:21 43° 261° (W) 00:12:10 437.505
QB50P2 04 Aug 00:09:52 00:13:22 24° 92° (E) 00:16:55 145.880/145.840
DX 1 04 Aug 00:11:49 00:15:41 30° 266° (W) 00:19:31 434.975-435.025
RS-15 04 Aug 00:21:18 00:32:24 76° 325° (NW) 00:44:05 29.354- 29.394
AUBIESAT-1 04 Aug 00:25:35 00:30:23 73° 295° (WNW) 00:35:02 437.475
UNISAT 6 04 Aug 00:25:39 00:30:22 71° 103° (ESE) 00:35:04 437.425
TISAT 1 04 Aug 00:27:07 00:31:02 41° 66° (ENE) 00:35:00 437.305
SPROUT 04 Aug 00:27:27 00:31:39 60° 70° (ENE) 00:35:54 437.525
BEESAT 2 04 Aug 00:30:07 00:33:59 40° 126° (SE) 00:37:53 435.950
DUCHIFAT 1 04 Aug 00:30:36 00:34:29 34° 96° (E) 00:38:23 145.980
Cosmos 2491 04 Aug 00:32:12 00:40:55 73° 263° (W) 00:49:33 435.465 / 435.565
NANOSAT C BR1 04 Aug 00:36:11 00:40:11 39° 97° (E) 00:44:12 145.865
QB50P1 04 Aug 00:36:15 00:40:17 39° 97° (E) 00:44:19 145.935-145.965
VELOX 1 04 Aug 00:38:02 00:41:54 29° 266° (W) 00:45:45 145.980
ISS 04 Aug 00:44:02 00:47:10 43° 185° (S) 00:50:17 145.825
AIST 2 04 Aug 00:47:10 00:50:11 19° 117° (ESE) 00:53:19 435.215
BEESAT 04 Aug 00:55:03 00:58:45 23° 56° (NE) 01:02:31 436.000
YUBILEINY 04 Aug 01:00:39 01:09:10 62° 93° (E) 01:17:48 435.215
ESTCUBE 1 04 Aug 01:02:22 01:06:12 25° 269° (W) 01:09:57 437.505/2401.250
BEESAT 3 04 Aug 01:05:06 01:09:13 86° 135° (SE) 01:13:20 437.485
TIGRISAT 04 Aug 01:07:47 01:12:24 57° 291° (WNW) 01:17:01 435.000
ANTELSAT 04 Aug 01:11:01 01:15:35 52° 293° (WNW) 01:20:10 437.575/2403.000
SWISSCUBE 04 Aug 01:15:23 01:19:38 33° 61° (ENE) 01:23:56 437.505
POLYITAN 1 04 Aug 01:20:58 01:25:16 84° 287° (WNW) 01:29:35 437.675
BUGSAT 1 04 Aug 01:23:58 01:28:03 70° 103° (ESE) 01:32:09 437.445
O/OREOS (USA 219) 04 Aug 01:28:03 01:31:22 21° 104° (ESE) 01:34:46 437.305
AIST 1 04 Aug 01:29:20 01:30:40 11° 280° (W) 01:31:50
M-CUBED/EXP-1 PRIME 04 Aug 01:34:28 01:38:21 24° 311° (NW) 01:42:08 437.505
POPSAT HIP 1 04 Aug 01:36:48 01:41:01 63° 290° (WNW) 01:45:15 437.405
ITUPSAT 1 04 Aug 01:37:35 01:42:08 43° 64° (ENE) 01:46:42 437.325
CUBEBUG 1 04 Aug 01:42:42 01:44:59 14° 276° (W) 01:47:06 437.445
QB50P2 04 Aug 01:45:22 01:49:32 51° 292° (WNW) 01:53:41 145.880/145.840
STARS 04 Aug 01:59:40 02:01:32 13° 49° (NE) 02:03:33 437.465
AUBIESAT-1 04 Aug 02:01:06 02:04:24 19° 315° (NW) 02:07:36 437.475
UNISAT 6 04 Aug 02:03:02 02:06:44 23° 303° (WNW) 02:10:25 437.425
TISAT 1 04 Aug 02:03:13 02:06:56 29° 266° (W) 02:10:37 437.305
SPROUT 04 Aug 02:04:48 02:08:08 21° 270° (W) 02:11:23 437.525
Cosmos 2504 04 Aug 02:05:33 02:11:03 24° 76° (ENE) 02:17:03 435.465 / 435.565
DUCHIFAT 1 04 Aug 02:06:24 02:10:19 36° 295° (WNW) 02:14:13 145.980
BEESAT 2 04 Aug 02:08:01 02:12:01 47° 327° (NNW) 02:16:03 435.950
NANOSAT C BR1 04 Aug 02:12:08 02:15:58 33° 297° (WNW) 02:19:46 145.865
QB50P1 04 Aug 02:12:15 02:16:05 32° 297° (WNW) 02:19:53 145.935-145.965
Oscar 19 04 Aug 02:12:40 02:16:40 23° 89° (E) 02:20:46 437.125/150
ISS 04 Aug 02:20:28 02:23:09 24° 204° (SSW) 02:25:50 145.825
AIST 2 04 Aug 02:24:00 02:28:17 87° 315° (NW) 02:32:35 435.215
Cosmos 2491 04 Aug 02:30:15 02:36:24 21° 287° (WNW) 02:42:14 435.465 / 435.565
BEESAT 04 Aug 02:31:22 02:36:10 75° 256° (WSW) 02:41:01 436.000
KKS-1 04 Aug 02:32:10 02:36:00 29° 61° (ENE) 02:39:52 437.445
RS-15 04 Aug 02:35:33 02:46:33 54° 357° (N) 02:58:06 29.354- 29.394
BEESAT 3 04 Aug 02:43:54 02:47:34 30° 338° (NNW) 02:51:14 437.485
TIGRISAT 04 Aug 02:46:04 02:48:18 13° 311° (NW) 02:50:24 435.000
ANTELSAT 04 Aug 02:49:29 02:51:28 12° 312° (NW) 02:53:19 437.575/2403.000
SWISSCUBE 04 Aug 02:52:43 02:57:22 48° 261° (W) 03:02:03 437.505
POLYITAN 1 04 Aug 02:57:56 03:00:35 16° 306° (NW) 03:03:09 437.675
YUBILEINY 04 Aug 02:58:10 03:06:29 45° 298° (WNW) 03:14:49 435.215
JAS-2 04 Aug 02:58:53 03:03:19 16° 75° (ENE) 03:08:06 435.910
BUGSAT 1 04 Aug 03:00:11 03:03:08 19° 303° (WNW) 03:06:02 437.445
O/OREOS (USA 219) 04 Aug 03:05:51 03:10:21 71° 304° (NW) 03:14:55 437.305
POPSAT HIP 1 04 Aug 03:14:14 03:16:09 13° 309° (NW) 03:17:57 437.405
ITUPSAT 1 04 Aug 03:15:42 03:20:08 35° 264° (W) 03:24:33 437.325
QB50P2 04 Aug 03:23:23 03:24:34 11° 311° (NW) 03:25:35 145.880/145.840
STARS 04 Aug 03:32:54 03:37:11 60° 69° (ENE) 03:41:33 437.465
Gurwin Techsat 1B 04 Aug 03:37:19 03:42:14 37° 95° (E) 03:47:09 435.225
ITAMSAT 1 04 Aug 03:40:33 03:45:15 34° 94° (E) 03:49:57 435.822/435.867
MOZHAYETS 4 04 Aug 03:46:22 03:50:06 25° 58° (ENE) 03:53:54
BEESAT 2 04 Aug 03:47:32 03:50:54 23° 350° (N) 03:54:14 435.950
Oscar 19 04 Aug 03:51:26 03:56:37 74° 291° (WNW) 04:01:49 437.125/150
Cosmos 2504 04 Aug 03:54:49 04:02:11 86° 100° (E) 04:10:12 435.465 / 435.565
AIST 2 04 Aug 04:03:32 04:07:21 30° 339° (NNW) 04:11:08 435.215
KKS-1 04 Aug 04:08:11 04:12:29 47° 261° (W) 04:16:48 437.445
CUSAT 1 04 Aug 04:09:13 04:09:46 11° 89° (E) 04:10:24 437.405
BEESAT 04 Aug 04:12:26 04:14:56 14° 277° (W) 04:17:15 436.000
BEESAT 3 04 Aug 04:23:21 04:26:33 21° 1° (N) 04:29:45 437.485
JAS-2 04 Aug 04:42:28 04:50:10 58° 98° (E) 04:57:52 435.910
O/OREOS (USA 219) 04 Aug 04:47:17 04:50:37 20° 327° (NNW) 04:53:56 437.305
AO-7 04 Aug 04:48:02 04:55:13 32° 91° (E) 05:02:31 29.400- 29.500
RS-15 04 Aug 04:49:32 05:01:01 67° 28° (NNE) 05:13:03 29.354- 29.394
HORYU 2 04 Aug 04:58:50 05:02:41 27° 93° (E) 05:06:35 437.375
YUBILEINY 04 Aug 05:01:01 05:06:22 17° 327° (NNW) 05:11:29 435.215
STARS 04 Aug 05:10:34 05:14:02 22° 270° (W) 05:17:26 437.465
Gurwin Techsat 1B 04 Aug 05:17:17 05:22:23 47° 296° (WNW) 05:27:28 435.225
ITAMSAT 1 04 Aug 05:19:57 05:24:58 50° 295° (WNW) 05:29:57 435.822/435.867
MOZHAYETS 4 04 Aug 05:22:22 05:26:59 64° 258° (WSW) 05:31:39
BEESAT 2 04 Aug 05:26:38 05:30:04 24° 14° (NNE) 05:33:29 435.950
Oscar 19 04 Aug 05:31:46 05:35:16 18° 310° (NW) 05:38:39 437.125/150
AIST 2 04 Aug 05:43:35 05:47:00 22° 3° (N) 05:50:23 435.215
GONETS M04 04 Aug 05:44:10 05:51:29 33° 81° (E) 05:58:58
Cosmos 2504 04 Aug 05:49:06 05:55:34 30° 306° (NW) 06:02:21 435.465 / 435.565
CUBESAT XI-V 04 Aug 05:49:06 05:53:18 34° 63° (ENE) 05:57:31 437.345
CUSAT 1 04 Aug 05:49:30 05:51:56 34° 291° (WNW) 05:54:28 437.405
DANDE 04 Aug 05:53:24 05:56:04 54° 287° (WNW) 05:58:39 436.750
BEESAT 3 04 Aug 06:01:46 06:05:30 33° 24° (NNE) 06:09:12 437.485
STRAND 1 04 Aug 06:02:29 06:06:25 23° 54° (NE) 06:10:26 437.568
Cubesat XI-IV 04 Aug 06:19:59 06:20:35 10° 78° (ENE) 06:21:29 437.490
JAS-2 04 Aug 06:27:44 06:35:08 49° 300° (WNW) 06:42:31 435.910
O/OREOS (USA 219) 04 Aug 06:31:21 06:31:53 10° 353° (N) 06:32:23 437.305
HORYU 2 04 Aug 06:35:11 06:39:35 50° 293° (WNW) 06:43:56 437.375
AO-7 04 Aug 06:40:37 06:49:02 83° 294° (WNW) 06:57:21 29.400- 29.500
Gurwin Techsat 1B 04 Aug 06:58:49 07:01:17 13° 317° (NW) 07:03:36 435.225
ITAMSAT 1 04 Aug 07:00:58 07:03:28 13° 316° (NW) 07:05:46 435.822/435.867
Cosmos 2499 04 Aug 07:01:47 07:07:33 24° 76° (ENE) 07:13:53 435.465 / 435.565
RS-15 04 Aug 07:02:20 07:13:45 64° 236° (SW) 07:25:35 29.354- 29.394
PRISM 04 Aug 07:02:59 07:06:56 42° 66° (ENE) 07:10:54 437.425
MOZHAYETS 4 04 Aug 07:03:50 07:05:16 11° 280° (W) 07:06:28
BEESAT 2 04 Aug 07:04:45 07:08:49 58° 36° (NE) 07:12:51 435.950
CUTE-I 04 Aug 07:12:06 07:16:29 26° 90° (E) 07:20:57 437.470
AIST 2 04 Aug 07:22:37 07:26:34 36° 26° (NNE) 07:30:29 435.215
CUBESAT XI-V 04 Aug 07:26:13 07:30:41 43° 263° (W) 07:35:08 437.345
GONETS M04 04 Aug 07:38:57 07:47:41 78° 285° (WNW) 07:56:26
BEESAT 3 04 Aug 07:39:41 07:43:45 72° 228° (SW) 07:47:47 437.485
STRAND 1 04 Aug 07:39:59 07:45:08 82° 254° (WSW) 07:50:20 437.568
M-CUBED/EXP-1 PRIME 04 Aug 07:47:13 07:49:35 14° 40° (NE) 07:52:07 437.505
Cosmos 2504 04 Aug 07:49:00 07:51:18 11° 337° (NNW) 07:53:23 435.465 / 435.565
Cubesat XI-IV 04 Aug 07:56:51 08:02:05 53° 100° (E) 08:07:18 437.490
O/OREOS (USA 219) 04 Aug 08:11:30 08:13:25 12° 18° (NNE) 08:15:23 437.305
AUBIESAT-1 04 Aug 08:12:19 08:15:18 18° 45° (NE) 08:18:29 437.475
JAS-2 04 Aug 08:13:34 08:18:37 19° 322° (NW) 08:23:32 435.910
HORYU 2 04 Aug 08:13:42 08:15:18 12° 313° (NW) 08:16:45 437.375
HO-68 04 Aug 08:33:51 08:37:26 15° 78° (ENE) 08:41:22 435.675
AO-7 04 Aug 08:33:51 08:40:58 32° 318° (NW) 08:47:55 29.400- 29.500
PRISM 04 Aug 08:38:50 08:42:31 28° 265° (W) 08:46:09 437.425
DOVE 4 04 Aug 08:42:17 08:44:06 12° 83° (E) 08:46:10 437.250
BEESAT 2 04 Aug 08:43:04 08:46:41 30° 237° (WSW) 08:50:14 435.950
PCSat 04 Aug 08:49:10 08:52:52 19° 109° (ESE) 08:56:43 145.827
CUTE-I 04 Aug 08:51:46 08:57:04 66° 292° (WNW) 09:02:20 437.470
Cosmos 2499 04 Aug 08:51:54 08:59:35 85° 98° (E) 09:07:59 435.465 / 435.565
AIST 2 04 Aug 09:01:11 09:05:24 64° 228° (SW) 09:09:31 435.215
TIGRISAT 04 Aug 09:04:10 09:05:33 11° 47° (NE) 09:07:04 435.000
YUBILEINY 04 Aug 09:04:40 09:10:06 18° 35° (NE) 09:15:46 435.215
ANTELSAT 04 Aug 09:07:04 09:08:50 12° 48° (NE) 09:10:46 437.575/2403.000
GOMX 1 04 Aug 09:09:25 09:13:20 29° 93° (E) 09:17:30 467.674
SEEDS 04 Aug 09:15:39 09:17:55 14° 84° (E) 09:20:19 437.485
RS-15 04 Aug 09:15:50 09:24:08 22° 260° (W) 09:32:05 29.354- 29.394
BRITE-PL 04 Aug 09:16:23 09:20:36 47° 99° (E) 09:25:07 437.365/2234.400
BEESAT 3 04 Aug 09:18:56 09:21:03 14° 246° (WSW) 09:23:01 437.485
M-CUBED/EXP-1 PRIME 04 Aug 09:19:12 09:23:26 53° 61° (ENE) 09:28:00 437.505
STRAND 1 04 Aug 09:21:59 09:25:14 16° 276° (W) 09:28:20 437.568
CUTE 1.7 + AOD 2 04 Aug 09:23:40 09:26:50 20° 88° (E) 09:30:03 437.475
CANX-2 04 Aug 09:32:21 09:35:58 25° 92° (E) 09:39:35 2200.000
AAUSAT CUBESAT 2 04 Aug 09:33:03 09:35:19 14° 85° (E) 09:37:44 437.432
Cubesat XI-IV 04 Aug 09:37:15 09:42:03 34° 301° (WNW) 09:46:47 437.490
GONETS M04 04 Aug 09:39:06 09:46:14 26° 312° (NW) 09:53:14
AUBIESAT-1 04 Aug 09:44:59 09:49:19 76° 64° (ENE) 09:53:58 437.475
O/OREOS (USA 219) 04 Aug 09:50:15 09:54:19 31° 42° (NE) 09:58:26 437.305
UNISAT 6 04 Aug 09:56:03 09:59:43 26° 59° (ENE) 10:03:31 437.425
DUCHIFAT 1 04 Aug 09:56:57 09:58:44 13° 51° (NE) 10:00:39 145.980
SO-50 04 Aug 09:57:37 10:02:06 40° 125° (SE) 10:06:44 436.795
CINEMA 3 04 Aug 10:01:40 10:05:44 29° 92° (E) 10:09:59 145.822/145.860
NANOSAT C BR1 04 Aug 10:02:18 10:04:28 14° 52° (NE) 10:06:46 145.865
QB50P1 04 Aug 10:02:30 10:04:44 14° 53° (NE) 10:07:05 145.935-145.965
CUBEBUG 2 04 Aug 10:09:15 10:12:29 19° 87° (E) 10:15:52 437.445
DOVE 4 04 Aug 10:18:09 10:22:44 70° 103° (ESE) 10:27:36 437.250
HO-68 04 Aug 10:19:51 10:26:57 59° 102° (ESE) 10:34:03 435.675
AO-7 04 Aug 10:26:33 10:31:21 17° 345° (NNW) 10:36:01 29.400- 29.500
DELFI C3 04 Aug 10:28:59 10:31:33 16° 87° (E) 10:34:12 145.870
COMPASS 1 04 Aug 10:29:06 10:33:14 49° 99° (E) 10:37:21 437.405
PCSat 04 Aug 10:30:10 10:35:36 81° 130° (SE) 10:41:04 145.827
CUTE-I 04 Aug 10:32:54 10:36:20 17° 312° (NW) 10:39:38 437.470
TIGRISAT 04 Aug 10:37:04 10:41:20 50° 67° (ENE) 10:45:46 435.000
ANTELSAT 04 Aug 10:40:23 10:44:43 55° 68° (ENE) 10:49:13 437.575/2403.000
AIST 2 04 Aug 10:41:24 10:43:14 12° 247° (WSW) 10:44:53 435.215
POLYITAN 1 04 Aug 10:45:45 10:49:24 29° 62° (ENE) 10:53:07 437.675
BUGSAT 1 04 Aug 10:46:53 10:49:51 20° 58° (ENE) 10:52:53 437.445
Cosmos 2499 04 Aug 10:47:04 10:53:57 31° 307° (NW) 11:01:10 435.465 / 435.565
GOMX 1 04 Aug 10:47:22 10:51:41 48° 292° (WNW) 10:56:16 467.674
SEEDS 04 Aug 10:50:05 10:54:25 90° 270° (W) 10:58:40 437.485
ZACube-1 04 Aug 10:50:09 10:53:58 26° 91° (E) 10:57:52 437.345
M-CUBED/EXP-1 PRIME 04 Aug 10:54:46 10:58:30 27° 262° (W) 11:02:26 437.505
BRITE-PL 04 Aug 10:55:17 10:59:03 29° 297° (WNW) 11:02:58 437.365/2234.400
CUTE 1.7 + AOD 2 04 Aug 10:58:53 11:03:11 65° 289° (WNW) 11:07:26 437.475
POPSAT HIP 1 04 Aug 11:01:01 11:04:54 38° 65° (ENE) 11:08:51 437.405
YUBILEINY 04 Aug 11:01:21 11:09:49 48° 64° (ENE) 11:18:19 435.215
AAUSAT CUBESAT 2 04 Aug 11:07:20 11:11:36 87° 286° (WNW) 11:15:47 437.432
HUMSAT D 04 Aug 11:07:40 11:10:34 18° 87° (E) 11:13:34 437.325/437.525
CANX-2 04 Aug 11:07:56 11:12:08 50° 292° (WNW) 11:16:17 2200.000
QB50P2 04 Aug 11:09:28 11:13:30 46° 67° (ENE) 11:17:35 145.880/145.840
FUNcube-1 04 Aug 11:09:59 11:14:11 36° 95° (E) 11:18:27 145.935
Oscar 11 04 Aug 11:16:32 11:20:52 59° 101° (E) 11:25:10 145.826/435.025
UKube-1 04 Aug 11:19:29 11:21:43 14° 86° (E) 11:24:06 .
AUBIESAT-1 04 Aug 11:21:23 11:24:36 19° 267° (W) 11:27:52 437.475
UWE-3 04 Aug 11:21:52 11:26:25 57° 101° (E) 11:31:02 435.000/436.395/437.385
O/OREOS (USA 219) 04 Aug 11:29:33 11:34:04 58° 245° (WSW) 11:38:34 437.305
DUCHIFAT 1 04 Aug 11:29:39 11:33:48 64° 71° (ENE) 11:37:59 145.980
UNISAT 6 04 Aug 11:31:51 11:36:13 57° 259° (W) 11:40:44 437.425
50 SAT 04 Aug 11:33:32 11:35:43 15° 86° (E) 11:38:02 437.505
NANOSAT C BR1 04 Aug 11:35:28 11:39:38 74° 72° (ENE) 11:43:52 145.865
QB50P1 04 Aug 11:35:45 11:39:57 76° 72° (ENE) 11:44:11 145.935-145.965
SO-50 04 Aug 11:37:44 11:42:34 58° 326° (NNW) 11:47:30 436.795
CINEMA 3 04 Aug 11:38:38 11:43:10 51° 292° (WNW) 11:47:51 145.822/145.860
Cosmos 2504 04 Aug 11:39:46 11:45:03 18° 40° (NE) 11:50:43 435.465 / 435.565
AISAT 04 Aug 11:43:13 11:46:04 17° 87° (E) 11:49:02 437.250
GONETS M04 04 Aug 11:44:41 11:47:16 11° 344° (NNW) 11:49:40
CUBEBUG 2 04 Aug 11:45:05 11:49:44 79° 287° (WNW) 11:54:28 437.445
CUBEBUG 1 04 Aug 11:47:00 11:48:19 11° 82° (E) 11:49:48 437.445
Cosmos 2491 04 Aug 11:47:16 11:54:24 31° 80° (E) 12:01:44 435.465 / 435.565
DX 1 04 Aug 11:52:18 11:56:04 28° 94° (E) 11:59:51 434.975-435.025
DOVE 4 04 Aug 11:56:34 12:00:10 23° 301° (WNW) 12:03:51 437.250
Oscar 19 04 Aug 12:00:02 12:03:01 16° 48° (NE) 12:06:09 437.125/150
DELFI C3 04 Aug 12:03:03 12:07:09 73° 288° (WNW) 12:11:10 145.870
COMPASS 1 04 Aug 12:05:07 12:08:42 27° 299° (WNW) 12:12:14 437.405
HO-68 04 Aug 12:07:52 12:14:36 44° 304° (NW) 12:21:16 435.675
PCSat 04 Aug 12:14:33 12:19:33 36° 333° (NNW) 12:24:34 145.827
TIGRISAT 04 Aug 12:14:33 12:18:21 27° 268° (W) 12:22:12 435.000
AO-7 04 Aug 12:16:24 12:20:58 16° 13° (NNE) 12:25:36 29.400- 29.500
ANTELSAT 04 Aug 12:18:08 12:21:51 25° 270° (W) 12:25:34 437.575/2403.000
VELOX 1 04 Aug 12:20:25 12:24:25 33° 95° (E) 12:28:25 145.980
BUGSAT 1 04 Aug 12:20:58 12:24:59 63° 258° (WSW) 12:29:00 437.445
POLYITAN 1 04 Aug 12:21:09 12:25:11 43° 262° (W) 12:29:15 437.675
ZACube-1 04 Aug 12:26:09 12:30:36 54° 291° (WNW) 12:35:05 437.345
AIST 1 04 Aug 12:26:19 12:30:23 42° 94° (E) 12:34:29
SEEDS 04 Aug 12:26:51 12:29:38 17° 305° (NW) 12:32:19 437.485
GOMX 1 04 Aug 12:27:52 12:29:00 11° 311° (NW) 12:29:58 467.674
CUTE 1.7 + AOD 2 04 Aug 12:36:18 12:38:21 13° 309° (NW) 12:40:17 437.475
